Regional Weather Roundup
Issued by NWS Green Bay, WI

Home | Current Version | Previous Version | Graphics & Text | Print | Product List | Glossary Off
Versions: 1 2 3 4 5 6 7 8 9 10 11 12 13 14 15 16 17 18 19 20 21 22 23 24 25 26 27 28 29 30 31 32 33 34 35 36 37 38 39 40 41 42 43 44 45 46 47 48 49 50

000
ASUS43 KGRB 032110
RWRGRB

NORTH-CENTRAL AND NORTHEAST WISCONSIN REGIONAL WEATHER ROUNDUP
NATIONAL WEATHER SERVICE GREEN BAY WI
300 PM CST TUE MAR 03 2015

WIZ005-009-010>012-018-019-032200-
NORTH CENTRAL WISCONSIN

CITY           SKY/WX    TMP DP  RH WIND       PRES   REMARKS
IRONWOOD       CLOUDY    25  19  80 W16G22    29.49S
MANITOWISH WTR CLOUDY    24  17  77 NW10G21   29.50R
ARBOR VITAE    LGT SNOW  25  19  78 W8G17     29.50R
EAGLE RIVER    LGT SNOW  25  17  73 W13       29.48S
LAND O LAKES   LGT SNOW  26  19  74 W12G18    29.48S
RHINELANDER    CLOUDY    26  18  71 W16       29.50R
PHILLIPS       CLOUDY    25  18  76 NW8G16    29.53R
ANTIGO         CLOUDY    25  18  73 W12       29.51R
TOMAHAWK       LGT SNOW  27  19  71 W13G20    29.53F
MERRILL        CLOUDY    28  19  67 W14G22    29.53R
$$

WIZ013-073-032200-
NORTHEAST WISCONSIN

CITY           SKY/WX    TMP DP  RH WIND       PRES   REMARKS
IRON MOUNTAIN  CLOUDY    27  17  66 W12       29.47F
MARINETTE      PTSUNNY   28  21  74 W12       29.51F
OCONTO         CLOUDY    28  23  81 W15       29.54S
$$

WIZ017-030-035>037-045-032200-
CENTRAL WISCONSIN

CITY           SKY/WX    TMP DP  RH WIND       PRES   REMARKS
MEDFORD        FLURRIES  26  19  76 W14G22    29.55R
WAUSAU         CLOUDY    26  18  71 W18       29.54R
MOSINEE        CLOUDY    27  19  74 W17G28    29.57R
MARSHFIELD     CLOUDY    28  19  69 NW15      29.58R
WISC RAPIDS    CLOUDY    28  20  71 W14G21    29.61R
STEVENS POINT  CLOUDY    26  19  77 W8G16     29.57S
WAUPACA        CLOUDY    29  23  76 W10       29.58S
SHAWANO        CLOUDY    30  22  73 W9        29.55F
CLINTONVILLE   CLOUDY    28  21  74 W12G20    29.56S
$$

WIZ038-039-048-051-032200-
FOX VALLEY

CITY           SKY/WX    TMP DP  RH WIND       PRES   REMARKS
NWS GREEN BAY  CLOUDY    28  23  81 W15       29.55S
APPLETON       CLOUDY    27  21  80 W17G23    29.57R
OSHKOSH        CLOUDY    28  22  78 W14G21    29.58R
FOND DU LAC    CLOUDY    29  23  78 W17       29.58R
$$

WIZ022-050-052-032200-
EAST CENTRAL WISCONSIN

CITY           SKY/WX    TMP DP  RH WIND       PRES   REMARKS
STURGEON BAY   CLOUDY    27  23  86 W14       29.54S
MANITOWOC      CLOUDY    29  25  85 W17G25    29.56F
SHEBOYGAN      CLOUDY    30  23  75 W18G31    29.56R
$$

LMZ563-521-522-541>543-032200-
LAKESHORE

STATION/POSITION TIME  TEMP    WIND        PRES    VSBY  WAVE
                       AIR SEA DIR/SP/G                  HT/PER
                 (UTC) (F)     (DEG/KT/KT) (MB)    (MI)  (FT/S)
SHEBOYGAN LKSHOR 2100   31     270/  7/  9 1002.3R
KEWAUNEE LKSHORE 2100   29     280/ 12/ 17  999.8R
NORTHPORT PIER   2100   28     260/ 10/ 15  999.7S
SISTER BAY LKSHO 2000   30     260/ 13/ 16   N/A
CHAMBERS ISLAND  2100   28     230/  9/ 16 1000.0F
MENOMINEE LKSHOR 2100   28     310/ 12     1000.5F
$$



USA.gov is the U.S. government's official web portal to all federal, state and local government web resources and services.